Regional Weather Roundup
Issued by NWS Northern Indiana

Home | Current Version | Previous Version | Text Only | Print | Product List | Glossary Off
Versions: 1 2 3 4 5 6 7 8 9 10 11 12 13 14 15 16 17 18 19 20 21 22 23 24 25 26 27 28 29 30 31 32 33 34 35 36 37 38 39 40 41 42 43 44 45 46 47 48 49 50

000
ASUS43 KIWX 220710
RWRIWX

KIWX WEATHER ROUNDUP
NATIONAL WEATHER SERVICE NORTHERN INDIANA
300 AM EDT FRI AUG 22 2014

NOTE: "FAIR" INDICATES FEW OR NO CLOUDS BELOW 12,000 FEET WITH NO
SIGNIFICANT WEATHER AND/OR OBSTRUCTIONS TO VISIBILITY.

* THESE STATIONS ARE NOT UNDER NWS QUALITY CONTROL. THEY ALSO MAY NOT
  REPORT WEATHER SUCH AS PRECIPITATION OR FOG.

INZ001>027-220800-
NORTHERN INDIANA

CITY           SKY/WX    TMP DP  RH WIND       PRES   REMARKS
GARY*          TSTM      73  70  92 SE8       29.92F
VALPARAISO     HVY RAIN  71  69  93 NW9G21    29.96R FOG
MICHIGAN CITY* LGT RAIN  70  70 100 SW3       29.92F
LAPORTE*       CLOUDY    69  69 100 CALM      29.94F
KNOX*          CLOUDY    71  68  91 W7        29.94R VSB 1/4
SOUTH BEND     LGT RAIN  72  69  90 E3        29.92F
GOSHEN         MOCLDY    72  69  90 CALM      29.93F
MONTICELLO*    MOCLDY    73  73  98 S6        29.91F
LOGANSPORT*    LGT RAIN  70  68  94 S8        29.94F
ROCHESTER*     MOCLDY    73  70  88 S7        29.93F
ANGOLA*        CLOUDY    68  61  77 CALM      29.94F VSB 1/2
FORT WAYNE     MOCLDY    70  68  93 S7        29.94F
HUNTINGTON*    MOCLDY    70  69  96 S3        29.94F
PERU/GRISSOM   PTCLDY    71  71 100 S5        29.94F
MARION*        LGT RAIN  70  69  95 E9        29.97S

$$
INZ028>050-220800-
CENTRAL INDIANA

CITY           SKY/WX    TMP DP  RH WIND       PRES   REMARKS
LAFAYETTE      PTCLDY    74  74 100 S5        29.91F
KOKOMO*        MOCLDY    70  68  94 S9        29.94F
MUNCIE*        TSTM      71  68  90 S7        29.95F
INDIANAPOLIS   CLOUDY    75  72  90 S9        29.95F

$$
MIZ043>046-050>051-056>058-064>065-071>073-077>080-220800-
SOUTHWEST LOWER MICHIGAN

CITY           SKY/WX    TMP DP  RH WIND       PRES   REMARKS
BATTLE CREEK   CLOUDY    73  70  90 CALM      29.95F
BENTON HARBOR  PTCLDY    69  68  96 E3        29.92F
COLDWATER*     CLOUDY    70  69  97 CALM      29.95F FOG
HILLSDALE*     CLOUDY    69  69 100 CALM      29.96F FOG
HOLLAND        PTCLDY    72  70  93 E5        29.94F FOG
GRAND RAPIDS   CLOUDY    70  70 100 E3        29.94F FOG
KALAMAZOO      PTCLDY    71  69  93 CALM      29.95F FOG
STURGIS*         N/A     66  66 100 CALM      29.94F FOG
THREE RIVERS*  FOG       70  69  98 CALM      29.94F VSB 1

$$
OHZ001>008-015>018-024>025-220800-
NORTHWEST OHIO

CITY           SKY/WX    TMP DP  RH WIND       PRES   REMARKS
WAUSEON*       CLOUDY    70  70 100 CALM      29.96F FOG
DEFIANCE       FOG       69  67  93 SE3       29.94F VSB 3/4
FINDLAY        CLOUDY    72  69  90 VRB3      29.95F
TOLEDO EXPRESS CLEAR     69  68  96 E3        29.95F
TOLEDO METCALF CLOUDY    71  68  90 SE3       29.96F
LIMA           FOG       71  69  93 SW3       29.97F VSB 1

$$
&&



USA.gov is the U.S. government's official web portal to all federal, state and local government web resources and services.